Weather History for KHBI - September, 2014

Change the Weather History Date:

Thursday, September 25, 2014

  Actual Average (KGSO) Record (KGSO)
Temperature  
Mean Temperature 64 °F 67 °F  
Max Temperature 67 °F 77 °F 95 °F (1933)
Min Temperature 60 °F 57 °F 37 °F (1983)
Degree Days  
Heating Degree Days 2 2  
Month to date heating degree days 17  
Since 1 July heating degree days 18  
Cooling Degree Days 0 4  
Month to date cooling degree days 169  
Year to date cooling degree days 1431  
Growing Degree Days 14 (Base 50)    
Moisture  
Dew Point 61 °F    
Average Humidity 92    
Maximum Humidity 100    
Minimum Humidity 82    
Precipitation  
Precipitation 0.02 in 0.12 in 1.48 in (1989)
Month to date precipitation 3.58  
Year to date precipitation 32.37  
Sea Level Pressure  
Sea Level Pressure 30.25 in    
Wind  
Wind Speed 6 mph (NNE)    
Max Wind Speed 12 mph    
Max Gust Speed -    
Visibility 9 miles    
Events Rain    
T = Trace of Precipitation, MM = Missing Value Source: NWS Daily Summary

Daily Weather History Graph

Daily Weather History Graph

Search for Another Location

Airport or City:

Trip Planner

Search our weather history database for the weather conditions in past years. The results will help you decide how hot, cold, wet, or windy it might be!

Date:

Astronomy

Sep. 25, 2014 Rise Set
Actual Time 7:09 AM EDT 7:12 PM EDT
Civil Twilight 6:44 AM EDT 7:37 PM EDT
Nautical Twilight 6:14 AM EDT 8:07 PM EDT
Astronomical Twilight 5:44 AM EDT 8:37 PM EDT
Moon 8:22 AM EDT (9/25) 7:59 PM EDT (9/25)
Length of Visible Light 12h 53m
Length of Day
12h 02m
New Moon, 2% of the Moon is Illuminated
Sep 25
New Moon
Oct 1
First Quarter
Oct 8
Full
Oct 15
Last Quarter
Oct 23
New

Hourly Weather History & Observations

Time (EDT) Temp. Dew Point Humidity Pressure Visibility Wind Dir Wind Speed Gust Speed Precip Events Conditions
12:15 AM 60.8 °F 60.8 °F 100% 30.26 in 4.0 mi NNE 6.9 mph - N/A   Overcast
12:35 AM 60.8 °F 60.8 °F 100% 30.27 in 4.0 mi North 6.9 mph - N/A   Light Drizzle
12:55 AM 60.8 °F 60.8 °F 100% 30.27 in 3.0 mi NNE 5.8 mph - N/A   Light Drizzle
1:15 AM 60.8 °F 60.8 °F 100% 30.27 in 4.0 mi North 5.8 mph - N/A   Light Drizzle
1:35 AM 60.8 °F 60.8 °F 100% 30.27 in 4.0 mi NNE 4.6 mph - N/A   Overcast
1:55 AM 61.0 °F 61.0 °F 100% 30.26 in 4.0 mi NNE 4.6 mph - N/A   Drizzle
2:15 AM 61.0 °F 61.0 °F 100% 30.27 in 5.0 mi NNE 4.6 mph - 0.01 in   Light Drizzle
2:35 AM 61.0 °F 61.0 °F 100% 30.26 in 5.0 mi North 5.8 mph - 0.01 in Rain Light Rain
2:55 AM 60.8 °F 60.8 °F 100% 30.26 in 4.0 mi North 4.6 mph - 0.01 in Rain Light Rain
3:15 AM 60.8 °F 60.8 °F 100% 30.26 in 4.0 mi North 6.9 mph - N/A   Light Drizzle
3:35 AM 61.0 °F 61.0 °F 100% 30.26 in 5.0 mi North 4.6 mph - N/A   Overcast
3:55 AM 61.2 °F 61.2 °F 100% 30.26 in 5.0 mi North 4.6 mph - N/A   Overcast
4:15 AM 61.0 °F 61.0 °F 100% 30.26 in 5.0 mi North 6.9 mph - 0.01 in   Light Drizzle
4:35 AM 61.0 °F 61.0 °F 100% 30.25 in 7.0 mi North 6.9 mph - 0.01 in   Overcast
4:55 AM 61.2 °F 61.2 °F 100% 30.26 in 7.0 mi North 5.8 mph - 0.01 in Rain Light Rain
5:15 AM 61.0 °F 61.0 °F 100% 30.26 in 5.0 mi NNE 5.8 mph - N/A   Overcast
5:35 AM 61.2 °F 61.2 °F 100% 30.26 in 10.0 mi NNE 5.8 mph - N/A   Overcast
5:55 AM 61.2 °F 61.0 °F 99% 30.26 in 10.0 mi NNE 9.2 mph - N/A   Overcast
6:15 AM 61.2 °F 60.8 °F 99% 30.26 in 10.0 mi NNE 8.1 mph - N/A   Overcast
6:35 AM 61.2 °F 60.8 °F 99% 30.26 in 10.0 mi North 9.2 mph - N/A   Overcast
6:55 AM 61.2 °F 60.8 °F 99% 30.27 in 10.0 mi North 5.8 mph - N/A   Overcast
7:15 AM 61.2 °F 60.8 °F 99% 30.27 in 10.0 mi North 8.1 mph - N/A   Overcast
7:35 AM 61.0 °F 60.6 °F 99% 30.27 in 10.0 mi North 9.2 mph - N/A   Overcast
7:55 AM 61.0 °F 60.8 °F 99% 30.27 in 10.0 mi NNE 8.1 mph - N/A   Overcast
8:15 AM 61.0 °F 60.6 °F 99% 30.27 in 10.0 mi NNE 6.9 mph - N/A   Overcast
8:35 AM 61.0 °F 60.4 °F 98% 30.28 in 10.0 mi NNE 6.9 mph - N/A   Overcast
8:55 AM 61.0 °F 60.4 °F 98% 30.28 in 5.0 mi NNE 4.6 mph - N/A   Overcast
9:15 AM 61.2 °F 60.8 °F 99% 30.28 in 4.0 mi North 8.1 mph - N/A   Overcast
9:35 AM 61.7 °F 60.8 °F 97% 30.28 in 10.0 mi NNE 9.2 mph - N/A   Overcast
9:55 AM 61.9 °F 60.8 °F 96% 30.29 in 10.0 mi North 8.1 mph - N/A   Overcast
10:15 AM 62.1 °F 60.8 °F 96% 30.29 in 10.0 mi North 11.5 mph - N/A   Overcast
10:35 AM 62.4 °F 60.8 °F 94% 30.29 in 10.0 mi NNE 6.9 mph - N/A   Overcast
10:50 AM 62.4 °F 60.8 °F 94% 30.29 in 10.0 mi NNE 6.9 mph - N/A   Overcast
11:15 AM 62.8 °F 61.0 °F 94% 30.29 in 10.0 mi North 5.8 mph - N/A   Overcast
11:35 AM 63.5 °F 61.2 °F 92% 30.29 in 10.0 mi North 8.1 mph - N/A   Overcast
11:55 AM 63.5 °F 61.0 °F 91% 30.28 in 10.0 mi NNE 8.1 mph - N/A   Overcast
12:15 PM 63.9 °F 61.0 °F 90% 30.29 in 10.0 mi North 9.2 mph - N/A   Overcast
12:35 PM 64.4 °F 60.8 °F 88% 30.28 in 10.0 mi North 9.2 mph - N/A   Overcast
12:55 PM 64.8 °F 61.0 °F 88% 30.27 in 10.0 mi North 10.4 mph - N/A   Overcast
1:15 PM 65.1 °F 61.3 °F 88% 30.27 in 10.0 mi North 8.1 mph - N/A   Overcast
1:35 PM 65.7 °F 61.3 °F 86% 30.26 in 10.0 mi North 8.1 mph - N/A   Overcast
1:55 PM 65.5 °F 61.2 °F 86% 30.26 in 10.0 mi NNE 10.4 mph - N/A   Overcast
2:15 PM 65.5 °F 61.3 °F 86% 30.25 in 10.0 mi North 8.1 mph - N/A   Overcast
2:35 PM 65.8 °F 61.2 °F 85% 30.24 in 10.0 mi North 9.2 mph - N/A   Overcast
2:55 PM 66.4 °F 61.5 °F 84% 30.24 in 10.0 mi North 8.1 mph - N/A   Overcast
3:15 PM 66.2 °F 61.9 °F 86% 30.23 in 10.0 mi North 8.1 mph - N/A   Overcast
3:35 PM 66.6 °F 61.7 °F 84% 30.23 in 10.0 mi NNE 5.8 mph - N/A   Overcast
3:55 PM 67.5 °F 61.9 °F 82% 30.22 in 10.0 mi North 6.9 mph - N/A   Overcast
4:15 PM 67.1 °F 62.1 °F 84% 30.22 in 10.0 mi North 6.9 mph - N/A   Overcast
4:35 PM 67.1 °F 62.2 °F 84% 30.23 in 10.0 mi North 6.9 mph - N/A   Overcast
4:55 PM 67.5 °F 62.1 °F 83% 30.22 in 10.0 mi NNE 4.6 mph - N/A   Overcast
5:15 PM 67.6 °F 62.4 °F 83% 30.22 in 10.0 mi NNE 5.8 mph - N/A   Overcast
5:35 PM 67.5 °F 62.6 °F 84% 30.22 in 10.0 mi NNE 4.6 mph - N/A   Overcast
5:55 PM 67.3 °F 62.6 °F 85% 30.22 in 10.0 mi North 4.6 mph - N/A   Overcast
6:15 PM 67.1 °F 62.6 °F 85% 30.22 in 10.0 mi North 6.9 mph - N/A   Overcast
6:35 PM 66.7 °F 62.6 °F 86% 30.22 in 10.0 mi NE 4.6 mph - N/A   Overcast
6:55 PM 66.7 °F 62.1 °F 85% 30.22 in 10.0 mi NE 3.5 mph - N/A   Overcast
7:15 PM 66.6 °F 61.7 °F 84% 30.22 in 10.0 mi Calm Calm - N/A   Overcast
7:35 PM 66.2 °F 61.9 °F 86% 30.22 in 10.0 mi Calm Calm - N/A   Overcast
7:55 PM 66.0 °F 61.9 °F 86% 30.23 in 10.0 mi Calm Calm - N/A   Overcast
8:15 PM 66.2 °F 61.9 °F 86% 30.23 in 10.0 mi NE 3.5 mph - N/A   Overcast
8:35 PM 66.2 °F 61.7 °F 85% 30.23 in 10.0 mi NE 5.8 mph - N/A   Overcast
8:55 PM 66.2 °F 61.7 °F 85% 30.23 in 10.0 mi NNE 3.5 mph - N/A   Overcast
9:15 PM 65.8 °F 61.7 °F 86% 30.23 in 10.0 mi NNE 5.8 mph - N/A   Overcast
9:35 PM 65.8 °F 61.7 °F 86% 30.24 in 10.0 mi NNE 4.6 mph - N/A   Overcast
9:55 PM 65.7 °F 61.9 °F 88% 30.24 in 10.0 mi NNE 4.6 mph - N/A   Overcast
10:15 PM 65.7 °F 61.9 °F 88% 30.24 in 10.0 mi NE 4.6 mph - N/A   Overcast
10:35 PM 65.5 °F 61.9 °F 88% 30.24 in 10.0 mi NE 3.5 mph - N/A   Overcast
10:55 PM 65.3 °F 62.1 °F 89% 30.24 in 10.0 mi NNE 4.6 mph - N/A   Overcast
11:15 PM 65.3 °F 61.7 °F 88% 30.24 in 10.0 mi ENE 6.9 mph - N/A   Overcast
11:35 PM 64.9 °F 61.0 °F 87% 30.25 in 10.0 mi NNE 8.1 mph - N/A   Overcast
11:55 PM 64.4 °F 60.8 °F 88% 30.25 in 10.0 mi NNE 4.6 mph - N/A   Overcast